Content
SEND FEEDBACK

Daily
Averages
Monthly
Summary
Canada

MONTREAL, QUEBEC


Home > North America > Canada > Quebec
Elevation: 118 feet     Latitude: 45 28N     Longitude: 073 45W

WEATHER
 
SELECT A DAY
Number of Records: 198,408;   Date Range: 1/1/95 - 8/10/14
 
SHARE

PRINT THIS DATA

[ ← Previous Day ]
WEATHER ALMANAC - JUNE 26, 2013
[ Next Day → ]
[ °C ]   °F
We're sorry. There is no daily almanac available for Montreal, Quebec on June 26, 2013.
WEATHER BY HOUR - JUNE 26, 2013
[ °C ]   °F
Local TimeTemperatureDewpointHumidityBarometerVisibilityWind DirectionWind SpeedGust SpeedPrecipitationEventsConditions
12:27 AM71.6 °F69.8 °F94 %29.72 in12.0 miSW (220°)3.5 mphMostly Cloudy
1:00 AM71.6 °F69.8 °F94 %29.72 in10.0 miSW (220°)4.6 mphLight Drizzle
1:50 AM71.6 °F69.8 °F94 %29.72 in10.0 miSW (230°)5.8 mphOvercast
2:00 AM71.0 °F69.0 °F92 %29.73 in10.0 miSW (230°)4.6 mphRainLight Drizzle
2:00 AM71.6 °F69.8 °F94 %29.72 in10.0 miWSW (240°)4.6 mphOvercast
2:53 AM69.8 °F68.0 °F94 %29.72 in15.0 miSSW (210°)8.1 mphPartly Cloudy
3:00 AM69.8 °F68.0 °F94 %29.72 in15.0 miSW (220°)8.1 mphMostly Cloudy
3:18 AM69.8 °F68.0 °F94 %29.71 in15.0 miSW (220°)10.4 mphMostly Cloudy
4:00 AM69.8 °F66.2 °F88 %29.72 in15.0 miSW (230°)11.5 mphScattered Clouds
5:00 AM68.0 °F66.2 °F94 %29.71 in15.0 miWSW (240°)6.9 mphMostly Cloudy
6:00 AM68.0 °F66.2 °F94 %29.72 in15.0 miWest (270°)3.5 mphMostly Cloudy
7:00 AM69.8 °F66.2 °F88 %29.74 in15.0 miWSW (240°)6.9 mphMostly Cloudy
8:00 AM71.0 °F66.0 °F78 %29.75 in15.0 miWest (280°)5.8 mphOvercast
8:00 AM71.6 °F66.2 °F83 %29.75 in15.0 miWNW (290°)5.8 mphOvercast
9:00 AM71.6 °F68.0 °F88 %29.76 in15.0 miWest (280°)3.5 mphOvercast
9:17 AM71.6 °F66.2 °F83 %29.75 in15.0 miSSW (200°)5.8 mphOvercast
10:00 AM71.6 °F66.2 °F83 %29.75 in15.0 miSSW (200°)4.6 mphOvercast
11:00 AM69.8 °F64.4 °F83 %29.77 in10.0 miNorth (10°)5.8 mphOvercast
12:00 PM68.0 °F62.6 °F83 %29.77 in6.0 miNE (40°)9.2 mphOvercast
1:00 PM68.0 °F62.6 °F83 %29.77 in6.0 miNNE (30°)10.4 mphOvercast
2:00 PM70.0 °F64.0 °F74 %29.77 in7.0 miNE (50°)6.9 mphOvercast
2:00 PM69.8 °F62.6 °F78 %29.77 in8.0 miNE (40°)8.1 mphOvercast
3:00 PM71.6 °F64.4 °F78 %29.77 in8.0 miNNE (30°)8.1 mphOvercast
4:00 PM75.2 °F66.2 °F73 %29.76 in7.0 miVariable2.3 mphMostly Cloudy
5:00 PM77.0 °F66.2 °F69 %29.75 in8.0 miNE (40°)4.6 mphMostly Cloudy
6:00 PM75.2 °F66.2 °F73 %29.73 in10.0 miSE (130°)6.9 mphMostly Cloudy
7:00 PM73.4 °F64.4 °F73 %29.75 in10.0 miNE (40°)11.5 mphOvercast
8:00 PM68.0 °F61.0 °F73 %29.76 in10.0 miNNE (20°)12.7 mphOvercast
8:00 PM68.0 °F60.8 °F78 %29.76 in10.0 miNNE (20°)10.4 mphOvercast
8:09 PM68.0 °F60.8 °F78 %29.76 in10.0 miNNE (20°)11.5 mphThunderstormThunderstorm
8:22 PM68.0 °F60.8 °F78 %29.76 in10.0 miNNE (30°)11.5 mphRain-ThunderstormLight Thunderstorms and Rain
9:00 PM66.2 °F60.8 °F83 %29.75 in10.0 miNNE (30°)5.8 mphRain-ThunderstormLight Thunderstorms and Rain
9:19 PM64.4 °F60.8 °F88 %29.75 in10.0 miNNE (20°)5.8 mphMostly Cloudy
10:00 PM64.4 °F59.0 °F83 %29.77 in10.0 miNNE (30°)6.9 mphScattered Clouds
11:00 PM62.6 °F59.0 °F88 %29.76 in10.0 miNorth (360°)5.8 mphPartly Cloudy
Hourly data recorded from CYUL, located miles away from Montreal, Quebec







STORIES FROM OUR PARTNERS